• En España
  • Lista de países
  • Para 7 días
  • Temperatura del agua
  • Mapa Satelital
  • El tiempo en el mapa
  • Informadores
  • user-avatar
    Iniciar sesión

    Tiempo cada hora Mingachevir

    Hoy, 23 Septiembre, Sábado

    Tiempo Temperatura Precipitaciones Viento Presión Humedad
    00:00 +26°C° 0 mm 1 mps 752 mmHg 54%
    01:00 +26°C° 0 mm 1 mps 752 mmHg 56%
    02:00 +25°C° 0 mm 1 mps 752 mmHg 58%
    03:00 +25°C° 0 mm 1 mps 752 mmHg 60%
    04:00 +25°C° 0,2 mm 1 mps 752 mmHg 62%
    05:00 +25°C° 0,2 mm 1 mps 752 mmHg 63%
    06:00 +25°C° 0,2 mm 1 mps 752 mmHg 64%
    07:00 +26°C° 0,1 mm 2 mps 752 mmHg 61%
    08:00 +28°C° 0,1 mm 2 mps 753 mmHg 57%
    09:00 +30°C° 0 mm 3 mps 753 mmHg 52%
    10:00 +32°C° 0 mm 4 mps 753 mmHg 46%
    11:00 +33°C° 0 mm 4 mps 753 mmHg 40%
    12:00 +35°C° 0 mm 5 mps 752 mmHg 34%
    13:00 +35°C° 0 mm 5 mps 752 mmHg 33%
    14:00 +35°C° 0 mm 5 mps 752 mmHg 31%
    15:00 +36°C° 0 mm 5 mps 752 mmHg 30%
    16:00 +34°C° 0 mm 5 mps 752 mmHg 32%
    17:00 +33°C° 0 mm 5 mps 752 mmHg 34%
    18:00 +30°C° 0 mm 5 mps 752 mmHg 36%
    19:00 +29°C° 0 mm 5 mps 753 mmHg 39%
    20:00 +28°C° 0 mm 5 mps 753 mmHg 42%
    21:00 +27°C° 0 mm 5 mps 753 mmHg 45%
    22:00 +26°C° 0 mm 4 mps 754 mmHg 49%
    23:00 +26°C° 0 mm 4 mps 754 mmHg 52%

    Mañana, 24 Septiembre, Domingo

    Tiempo Temperatura Precipitaciones Viento Presión Humedad
    00:00 +25°C° 0 mm 3 mps 754 mmHg 55%
    01:00 +24°C° 0 mm 3 mps 754 mmHg 58%
    02:00 +24°C° 0 mm 2 mps 754 mmHg 60%
    03:00 +23°C° 0 mm 1 mps 755 mmHg 63%
    04:00 +23°C° 0 mm 1 mps 755 mmHg 65%
    05:00 +22°C° 0 mm 1 mps 755 mmHg 66%
    06:00 +22°C° 0 mm 1 mps 755 mmHg 68%
    07:00 +24°C° 0 mm 1 mps 755 mmHg 62%
    08:00 +25°C° 0 mm 1 mps 755 mmHg 55%
    09:00 +27°C° 0 mm 2 mps 755 mmHg 49%
    10:00 +28°C° 0 mm 2 mps 755 mmHg 45%
    11:00 +29°C° 0 mm 2 mps 755 mmHg 40%
    12:00 +31°C° 0 mm 3 mps 755 mmHg 36%
    13:00 +31°C° 0 mm 3 mps 754 mmHg 34%
    14:00 +33°C° 0 mm 3 mps 754 mmHg 33%
    15:00 +33°C° 0 mm 4 mps 754 mmHg 31%
    16:00 +32°C° 0 mm 4 mps 754 mmHg 34%
    17:00 +30°C° 0 mm 3 mps 754 mmHg 37%
    18:00 +28°C° 0 mm 3 mps 755 mmHg 40%
    19:00 +27°C° 0 mm 3 mps 755 mmHg 45%
    20:00 +26°C° 0 mm 4 mps 755 mmHg 51%
    21:00 +25°C° 0 mm 4 mps 756 mmHg 56%
    22:00 +25°C° 0 mm 4 mps 756 mmHg 60%
    23:00 +24°C° 0 mm 3 mps 756 mmHg 64%

    Pasado mañana, 25 Septiembre, Lunes

    Tiempo Temperatura Precipitaciones Viento Presión Humedad
    00:00 +23°C° 0 mm 2 mps 756 mmHg 68%
    01:00 +23°C° 0 mm 2 mps 756 mmHg 70%
    02:00 +21°C° 0 mm 2 mps 756 mmHg 73%
    03:00 +22°C° 0 mm 1 mps 756 mmHg 75%
    04:00 +22°C° 0 mm 1 mps 756 mmHg 76%
    05:00 +21°C° 0 mm 1 mps 756 mmHg 77%
    06:00 +19°C° 0 mm 0 mps 756 mmHg 78%
    07:00 +23°C° 0 mm 1 mps 756 mmHg 69%
    08:00 +24°C° 0 mm 1 mps 756 mmHg 61%
    09:00 +26°C° 0 mm 1 mps 756 mmHg 53%
    10:00 +27°C° 0 mm 2 mps 756 mmHg 47%
    11:00 +29°C° 0 mm 2 mps 756 mmHg 41%
    12:00 +30°C° 0 mm 3 mps 756 mmHg 36%
    13:00 +31°C° 0 mm 3 mps 755 mmHg 34%
    14:00 +32°C° 0 mm 4 mps 755 mmHg 32%
    15:00 +33°C° 0 mm 4 mps 755 mmHg 31%
    16:00 +30°C° 0 mm 4 mps 755 mmHg 34%
    17:00 +29°C° 0 mm 3 mps 755 mmHg 37%
    18:00 +28°C° 0 mm 3 mps 756 mmHg 40%
    19:00 +27°C° 0 mm 4 mps 756 mmHg 42%
    20:00 +26°C° 0 mm 5 mps 756 mmHg 44%
    21:00 +26°C° 0 mm 6 mps 757 mmHg 46%
    22:00 +25°C° 0 mm 5 mps 757 mmHg 49%
    23:00 +23°C° 0 mm 4 mps 757 mmHg 51%

    26 Septiembre, Martes

    Tiempo Temperatura Precipitaciones Viento Presión Humedad
    00:00 +22°C° 0 mm 4 mps 757 mmHg 54%
    01:00 +22°C° 0 mm 3 mps 756 mmHg 56%
    02:00 +21°C° 0 mm 3 mps 756 mmHg 59%
    03:00 +20°C° 0 mm 2 mps 756 mmHg 62%
    04:00 +20°C° 0 mm 2 mps 756 mmHg 64%
    05:00 +19°C° 0 mm 2 mps 757 mmHg 66%
    06:00 +19°C° 0 mm 2 mps 757 mmHg 68%
    07:00 +21°C° 0 mm 2 mps 757 mmHg 63%
    08:00 +22°C° 0 mm 3 mps 757 mmHg 59%
    09:00 +25°C° 0 mm 4 mps 757 mmHg 54%
    10:00 +26°C° 0 mm 4 mps 757 mmHg 51%
    11:00 +26°C° 0 mm 4 mps 756 mmHg 48%
    12:00 +27°C° 0 mm 4 mps 756 mmHg 45%
    13:00 +28°C° 0 mm 4 mps 756 mmHg 45%
    14:00 +28°C° 0 mm 5 mps 755 mmHg 45%
    15:00 +28°C° 0 mm 5 mps 755 mmHg 45%
    16:00 +27°C° 0 mm 5 mps 755 mmHg 47%
    17:00 +26°C° 0 mm 5 mps 756 mmHg 50%
    18:00 +25°C° 0 mm 5 mps 756 mmHg 53%
    19:00 +23°C° 0 mm 5 mps 756 mmHg 56%
    20:00 +22°C° 0 mm 5 mps 756 mmHg 60%
    21:00 +21°C° 0 mm 5 mps 757 mmHg 63%
    22:00 +20°C° 0 mm 5 mps 757 mmHg 65%
    23:00 +20°C° 0 mm 4 mps 756 mmHg 67%

    27 Septiembre, Miércoles

    Tiempo Temperatura Precipitaciones Viento Presión Humedad
    00:00 +20°C° 0 mm 4 mps 756 mmHg 69%
    01:00 +20°C° 0 mm 3 mps 756 mmHg 70%
    02:00 +19°C° 0 mm 2 mps 756 mmHg 71%
    03:00 +19°C° 0 mm 2 mps 756 mmHg 72%
    04:00 +20°C° 0 mm 1 mps 756 mmHg 72%
    05:00 +20°C° 0 mm 1 mps 756 mmHg 73%
    06:00 +19°C° 0 mm 1 mps 755 mmHg 74%
    07:00 +20°C° 0 mm 1 mps 755 mmHg 70%
    08:00 +21°C° 0 mm 1 mps 755 mmHg 66%
    09:00 +23°C° 0 mm 2 mps 755 mmHg 61%
    10:00 +24°C° 0 mm 2 mps 755 mmHg 58%
    11:00 +25°C° 0 mm 2 mps 755 mmHg 54%
    12:00 +26°C° 0 mm 3 mps 754 mmHg 50%
    13:00 +26°C° 0 mm 3 mps 754 mmHg 49%
    14:00 +27°C° 0 mm 3 mps 754 mmHg 48%
    15:00 +27°C° 0 mm 4 mps 753 mmHg 46%
    16:00 +26°C° 0 mm 4 mps 754 mmHg 50%
    17:00 +25°C° 0 mm 4 mps 754 mmHg 54%
    18:00 +23°C° 0 mm 5 mps 755 mmHg 58%
    19:00 +23°C° 0,1 mm 5 mps 755 mmHg 59%
    20:00 +22°C° 0,1 mm 5 mps 756 mmHg 61%
    21:00 +21°C° 0,1 mm 6 mps 756 mmHg 63%
    22:00 +21°C° 0,2 mm 5 mps 756 mmHg 64%
    23:00 +20°C° 0,2 mm 5 mps 756 mmHg 65%

    28 Septiembre, Jueves

    Tiempo Temperatura Precipitaciones Viento Presión Humedad
    00:00 +20°C° 0,2 mm 5 mps 756 mmHg 67%
    01:00 +19°C° 0,1 mm 5 mps 756 mmHg 69%
    02:00 +19°C° 0,1 mm 5 mps 757 mmHg 71%
    03:00 +19°C° 0,1 mm 4 mps 757 mmHg 73%
    04:00 +18°C° 0,1 mm 4 mps 757 mmHg 75%
    05:00 +18°C° 0,1 mm 4 mps 757 mmHg 77%
    06:00 +18°C° 0,1 mm 4 mps 757 mmHg 78%
    07:00 +18°C° 0,2 mm 4 mps 757 mmHg 78%
    08:00 +18°C° 0,2 mm 4 mps 758 mmHg 78%
    09:00 +19°C° 0,2 mm 4 mps 758 mmHg 78%
    10:00 +19°C° 0,2 mm 4 mps 758 mmHg 78%
    11:00 +19°C° 0,2 mm 4 mps 758 mmHg 78%
    12:00 +19°C° 0,2 mm 4 mps 758 mmHg 78%
    13:00 +19°C° 0,2 mm 4 mps 758 mmHg 79%
    14:00 +18°C° 0,2 mm 4 mps 758 mmHg 80%
    15:00 +18°C° 0,2 mm 4 mps 757 mmHg 80%
    16:00 +18°C° 0,2 mm 4 mps 758 mmHg 81%
    17:00 +18°C° 0,2 mm 4 mps 758 mmHg 81%
    18:00 +17°C° 0,2 mm 3 mps 758 mmHg 82%
    19:00 +17°C° 0,2 mm 3 mps 758 mmHg 82%
    20:00 +17°C° 0,2 mm 3 mps 758 mmHg 82%
    21:00 +17°C° 0,2 mm 3 mps 758 mmHg 82%
    22:00 +17°C° 0,1 mm 3 mps 758 mmHg 82%
    23:00 +17°C° 0,1 mm 2 mps 758 mmHg 82%
    Mostrar más